Weather History for Colby, KS

Change the Weather History Date:

Tuesday, November 20, 2012

  Actual Average (KGLD) Record (KGLD)
Temperature  
Mean Temperature 50 °F 37 °F  
Max Temperature 69 °F 50 °F 75 °F (1955)
Min Temperature 30 °F 24 °F 4 °F (1929)
Degree Days  
Heating Degree Days 16 28  
Month to date heating degree days 472  
Since 1 July heating degree days 1012  
Cooling Degree Days 0 0  
Month to date cooling degree days 0  
Year to date cooling degree days 941  
Moisture  
Dew Point 32 °F    
Average Humidity 54    
Maximum Humidity 87    
Minimum Humidity 27    
Precipitation  
Precipitation 0.00 in 0.02 in 0.90 in (1930)
Month to date precipitation 0.52  
Year to date precipitation 19.01  
Snow  
Snow - 0.10 in - ()
Month to date snowfall 2.8  
Since 1 July snowfall 5.4  
Since 1 September snowfall 5.4  
Snow Depth -    
Sea Level Pressure  
Sea Level Pressure 30.18 in    
Wind  
Wind Speed 9 mph ()    
Max Wind Speed 21 mph    
Max Gust Speed 26 mph    
Visibility 10.0 miles    
Events      
T = Trace of Precipitation, MM = Missing Value Source: Averaged Metar Reports

Daily Weather History Graph

Daily Weather History Graph

Search for Another Location

Airport:

Trip Planner

Search our weather history database for the weather conditions in past years. The results will help you decide how hot, cold, wet, or windy it might be!

Date:

Astronomy

Nov. 20, 2012 Rise Set
Actual Time 7:34 AM CST 5:25 PM CST
Civil Twilight 7:05 AM CST 5:54 PM CST
Nautical Twilight 6:32 AM CST 6:27 PM CST
Astronomical Twilight 6:00 AM CST 6:59 PM CST
Moon 1:10 PM CST No Moon Set
Length of Visible Light 10h 49m
Length of Day
9h 51m
First Quarter, 51% of the Moon is Illuminated
Nov 20
First Quarter
Nov 28
Full
Dec 6
Last Quarter
Dec 13
New
Dec 19
First Quarter

Hourly Weather History & Observations

Time (CST) Temp. Windchill Dew Point Humidity Pressure Visibility Wind Dir Wind Speed Gust Speed Precip Events Conditions
12:15 AM 37.4 °F 32.8 °F 30.2 °F 75% 30.21 in 10.0 mi WSW 5.8 mph - N/A   Clear
12:35 AM 35.6 °F 30.7 °F 30.2 °F 81% 30.21 in 10.0 mi West 5.8 mph - N/A   Clear
12:55 AM 33.8 °F 25.8 °F 28.4 °F 81% 30.21 in 10.0 mi West 10.4 mph - N/A   Clear
1:15 AM 33.8 °F 27.0 °F 28.4 °F 81% 30.21 in 10.0 mi West 8.1 mph - N/A   Clear
1:35 AM 32.0 °F 26.4 °F 28.4 °F 87% 30.21 in 10.0 mi West 5.8 mph - N/A   Clear
1:55 AM 32.0 °F 25.6 °F 26.6 °F 80% 30.21 in 10.0 mi West 6.9 mph - N/A   Clear
2:15 AM 32.0 °F 24.2 °F 26.6 °F 80% 30.22 in 10.0 mi West 9.2 mph - N/A   Clear
2:35 AM 32.0 °F 24.8 °F 28.4 °F 87% 30.22 in 10.0 mi West 8.1 mph - N/A   Clear
5:55 AM 32.0 °F 24.8 °F 26.6 °F 80% 30.21 in 10.0 mi West 8.1 mph - N/A   Clear
6:15 AM 32.0 °F 24.2 °F 26.6 °F 80% 30.22 in 10.0 mi West 9.2 mph - N/A   Clear
6:35 AM 32.0 °F 24.8 °F 26.6 °F 80% 30.22 in 10.0 mi West 8.1 mph - N/A   Clear
6:55 AM 30.2 °F 21.9 °F 26.6 °F 86% 30.21 in 10.0 mi WSW 9.2 mph - N/A   Clear
7:15 AM 32.0 °F 25.6 °F 26.6 °F 80% 30.22 in 10.0 mi WSW 6.9 mph - N/A   Clear
7:35 AM 30.2 °F 21.3 °F 26.6 °F 86% 30.22 in 10.0 mi West 10.4 mph - N/A   Clear
7:55 AM 32.0 °F 24.2 °F 28.4 °F 87% 30.22 in 10.0 mi West 9.2 mph - N/A   Clear
8:15 AM 32.0 °F 24.8 °F 28.4 °F 87% 30.23 in 10.0 mi West 8.1 mph - N/A   Clear
8:35 AM 35.6 °F 29.9 °F 30.2 °F 81% 30.23 in 10.0 mi WSW 6.9 mph - N/A   Clear
8:55 AM 41.0 °F 39.0 °F 32.0 °F 70% 30.24 in 10.0 mi SW 3.5 mph - N/A   Clear
9:15 AM 44.6 °F 41.4 °F 32.0 °F 61% 30.24 in 10.0 mi SW 5.8 mph - N/A   Clear
9:35 AM 50.0 °F - 33.8 °F 54% 30.24 in 10.0 mi SSW 6.9 mph - N/A   Clear
9:55 AM 55.4 °F - 33.8 °F 44% 30.24 in 10.0 mi SW 9.2 mph - N/A   Clear
10:15 AM 59.0 °F - 35.6 °F 42% 30.24 in 10.0 mi SSW 11.5 mph - N/A   Clear
10:35 AM 62.6 °F - 35.6 °F 37% 30.24 in 10.0 mi SSW 15.0 mph 19.6 mph N/A   Clear
10:55 AM 62.6 °F - 35.6 °F 37% 30.24 in 10.0 mi SSW 15.0 mph - N/A   Clear
11:15 AM 64.4 °F - 35.6 °F 34% 30.23 in 10.0 mi SSW 18.4 mph 21.9 mph N/A   Clear
11:35 AM 66.2 °F - 35.6 °F 32% 30.23 in 10.0 mi South 18.4 mph 21.9 mph N/A   Clear
11:55 AM 66.2 °F - 35.6 °F 32% 30.22 in 10.0 mi South 17.3 mph - N/A   Clear
12:15 PM 68.0 °F - 35.6 °F 30% 30.21 in 10.0 mi SSW 16.1 mph 25.3 mph N/A   Clear
12:35 PM 68.0 °F - 35.6 °F 30% 30.20 in 10.0 mi SSW 17.3 mph 21.9 mph N/A   Clear
12:55 PM 68.0 °F - 35.6 °F 30% 30.19 in 10.0 mi South 17.3 mph 24.2 mph N/A   Clear
1:15 PM 68.0 °F - 35.6 °F 30% 30.18 in 10.0 mi South 20.7 mph 26.5 mph N/A   Clear
1:35 PM 68.0 °F - 35.6 °F 30% 30.17 in 10.0 mi South 16.1 mph - N/A   Clear
2:15 PM 69.8 °F - 35.6 °F 28% 30.15 in 10.0 mi South 18.4 mph 24.2 mph N/A   Clear
2:35 PM 69.8 °F - 33.8 °F 27% 30.14 in 10.0 mi South 17.3 mph 24.2 mph N/A   Clear
2:55 PM 69.8 °F - 33.8 °F 27% 30.13 in 10.0 mi SSW 19.6 mph 24.2 mph N/A   Clear
3:15 PM 69.8 °F - 33.8 °F 27% 30.13 in 10.0 mi South 16.1 mph 19.6 mph N/A   Clear
3:55 PM 68.0 °F - 33.8 °F 28% 30.13 in 10.0 mi South 18.4 mph 24.2 mph N/A   Clear
4:15 PM 68.0 °F - 33.8 °F 28% 30.13 in 10.0 mi South 13.8 mph 21.9 mph N/A   Clear
4:35 PM 68.0 °F - 33.8 °F 28% 30.13 in 10.0 mi South 15.0 mph - N/A   Clear
4:55 PM 64.4 °F - 35.6 °F 34% 30.13 in 10.0 mi South 13.8 mph - N/A   Clear
5:15 PM 64.4 °F - 33.8 °F 32% 30.13 in 10.0 mi South 11.5 mph - N/A   Clear
5:35 PM 60.8 °F - 33.8 °F 36% 30.12 in 10.0 mi South 8.1 mph - N/A   Clear
5:55 PM 59.0 °F - 32.0 °F 36% 30.12 in 10.0 mi South 8.1 mph - N/A   Clear
6:15 PM 57.2 °F - 32.0 °F 38% 30.12 in 10.0 mi South 5.8 mph - N/A   Clear
6:35 PM 50.0 °F - 32.0 °F 50% 30.13 in 10.0 mi SSW 5.8 mph - N/A   Clear
6:55 PM 50.0 °F - 32.0 °F 50% 30.13 in 10.0 mi SSW 6.9 mph - N/A   Clear
7:15 PM 46.4 °F 42.9 °F 32.0 °F 57% 30.13 in 10.0 mi SW 6.9 mph - N/A   Clear
7:35 PM 44.6 °F 40.7 °F 32.0 °F 61% 30.13 in 10.0 mi SSW 6.9 mph - N/A   Clear
7:55 PM 48.2 °F - 32.0 °F 54% 30.14 in 10.0 mi SSW 9.2 mph - N/A   Clear
8:15 PM 48.2 °F - 32.0 °F 54% 30.14 in 10.0 mi SSW 6.9 mph - N/A   Clear
8:35 PM 48.2 °F - 33.8 °F 58% 30.14 in 10.0 mi South 6.9 mph - N/A   Clear
8:55 PM 50.0 °F - 33.8 °F 54% 30.14 in 10.0 mi SSW 9.2 mph - N/A   Clear
9:15 PM 48.2 °F - 33.8 °F 58% 30.14 in 10.0 mi SSW 9.2 mph - N/A   Clear
9:35 PM 50.0 °F - 33.8 °F 54% 30.14 in 10.0 mi SSW 9.2 mph - N/A   Clear
9:55 PM 51.8 °F - 33.8 °F 50% 30.13 in 10.0 mi South 13.8 mph 17.3 mph N/A   Clear
10:15 PM 50.0 °F - 33.8 °F 54% 30.13 in 10.0 mi SSW 10.4 mph 17.3 mph N/A   Clear
10:35 PM 48.2 °F - 33.8 °F 58% 30.12 in 10.0 mi SSW 10.4 mph - N/A   Clear
10:55 PM 48.2 °F - 33.8 °F 58% 30.12 in 10.0 mi SSW 9.2 mph - N/A   Clear
11:15 PM 46.4 °F 41.9 °F 33.8 °F 62% 30.12 in 10.0 mi SSW 9.2 mph - N/A   Clear
11:35 PM 44.6 °F 39.7 °F 32.0 °F 61% 30.12 in 10.0 mi SW 9.2 mph - N/A   Clear
11:55 PM 44.6 °F 38.4 °F 32.0 °F 61% 30.12 in 10.0 mi SSW 12.7 mph - N/A   Clear